SAS572 EDDL-EKCH

Flight info

Callsign SAS572
Flight time 1h 2m
Altitude 35000
Route MEVEL4H MEVEL Y850 BASUM M170 STADE DCT MEGAR P605 GESKA Z711 MONAK
Aircraft A320/M-SDE3FGHIRWY/LB1

Departure

Time 2026-05-04 19:38
Airport Düsseldorf Airport (EDDL)

Arrival

Time 2026-05-04 20:40
Airport Copenhagen Kastrup Airport (EKCH)
Time Latitude Longitude Altitude Speed Heading
2026-05-04 18:33 51.27888 6.76330 137 ft 0 kts 50°
2026-05-04 18:46 51.27887 6.76330 137 ft 0 kts 50°
2026-05-04 18:49 51.27887 6.76329 137 ft 0 kts 50°
2026-05-04 19:19 51.27878 6.76312 137 ft 4 kts 50°
2026-05-04 19:19 51.27861 6.76279 137 ft 4 kts 50°
2026-05-04 19:20 51.27848 6.76253 137 ft 4 kts 63°
2026-05-04 19:20 51.27840 6.76212 137 ft 4 kts 87°
2026-05-04 19:20 51.27840 6.76170 137 ft 4 kts 92°
2026-05-04 19:20 51.27841 6.76134 137 ft 4 kts 83°
2026-05-04 19:21 51.27834 6.76093 137 ft 4 kts 59°
2026-05-04 19:21 51.27817 6.76061 137 ft 4 kts 31°
2026-05-04 19:21 51.27793 6.76045 137 ft 4 kts
2026-05-04 19:21 51.27768 6.76040 137 ft 4 kts 359°
2026-05-04 19:22 51.27756 6.76042 137 ft 0 kts
2026-05-04 19:24 51.27758 6.76042 137 ft 2 kts
2026-05-04 19:24 51.27814 6.76045 137 ft 11 kts
2026-05-04 19:25 51.27900 6.76048 137 ft 14 kts
2026-05-04 19:25 51.28000 6.76048 137 ft 15 kts 360°
2026-05-04 19:25 51.28040 6.76048 137 ft 1 kts 360°
2026-05-04 19:25 51.28060 6.76048 137 ft 4 kts 360°
2026-05-04 19:26 51.28074 6.76046 137 ft 2 kts 351°
2026-05-04 19:26 51.28075 6.76046 137 ft 1 kts 351°
2026-05-04 19:26 51.28089 6.76039 137 ft 5 kts 339°
2026-05-04 19:27 51.28149 6.76067 137 ft 12 kts 47°
2026-05-04 19:27 51.28211 6.76195 137 ft 17 kts 52°
2026-05-04 19:27 51.28286 6.76355 137 ft 16 kts 52°
2026-05-04 19:27 51.28343 6.76474 137 ft 14 kts 52°
2026-05-04 19:28 51.28389 6.76568 137 ft 2 kts 52°
2026-05-04 19:28 51.28402 6.76595 137 ft 4 kts 52°
2026-05-04 19:28 51.28440 6.76675 137 ft 17 kts 53°
2026-05-04 19:28 51.28506 6.76814 137 ft 13 kts 52°
2026-05-04 19:29 51.28568 6.76942 137 ft 17 kts 52°
2026-05-04 19:29 51.28649 6.77114 137 ft 23 kts 52°
2026-05-04 19:29 51.28751 6.77325 137 ft 25 kts 53°
2026-05-04 19:29 51.28855 6.77550 136 ft 26 kts 54°
2026-05-04 19:30 51.28959 6.77768 137 ft 24 kts 49°
2026-05-04 19:30 51.29049 6.77952 137 ft 21 kts 52°
2026-05-04 19:30 51.29140 6.78143 137 ft 19 kts 52°
2026-05-04 19:30 51.29205 6.78280 137 ft 12 kts 53°
2026-05-04 19:31 51.29254 6.78383 137 ft 11 kts 53°
2026-05-04 19:31 51.29291 6.78463 138 ft 0 kts 53°
2026-05-04 19:31 51.29293 6.78467 138 ft 0 kts 53°
2026-05-04 19:31 51.29296 6.78473 138 ft 0 kts 52°
2026-05-04 19:32 51.29297 6.78474 138 ft 1 kts 52°
2026-05-04 19:32 51.29307 6.78495 138 ft 5 kts 52°
2026-05-04 19:32 51.29335 6.78547 138 ft 5 kts 38°
2026-05-04 19:33 51.29358 6.78567 138 ft 1 kts 23°
2026-05-04 19:33 51.29369 6.78571 138 ft 3 kts 13°
2026-05-04 19:33 51.29380 6.78573 138 ft 0 kts
2026-05-04 19:34 51.29383 6.78573 138 ft 2 kts
2026-05-04 19:34 51.29429 6.78569 139 ft 7 kts 355°
2026-05-04 19:34 51.29443 6.78568 139 ft 0 kts 355°
2026-05-04 19:36 51.29498 6.78552 142 ft 11 kts 334°
2026-05-04 19:36 51.29510 6.78447 142 ft 12 kts 244°
2026-05-04 19:37 51.29503 6.78431 142 ft 0 kts 235°
2026-05-04 19:37 51.29494 6.78411 142 ft 12 kts 234°
2026-05-04 19:37 51.29288 6.77986 139 ft 83 kts 233°
2026-05-04 19:37 51.28813 6.76991 134 ft 138 kts 232°
2026-05-04 19:38 51.28195 6.75671 522 ft 147 kts 232°
2026-05-04 19:38 51.27604 6.74332 1118 ft 148 kts 231°
2026-05-04 19:38 51.26997 6.72965 1559 ft 160 kts 241°
2026-05-04 19:38 51.26883 6.71087 1820 ft 187 kts 287°
2026-05-04 19:39 51.27740 6.69468 2277 ft 200 kts 327°
2026-05-04 19:39 51.29047 6.68666 2904 ft 204 kts 351°
2026-05-04 19:39 51.30522 6.68664 3300 ft 223 kts
2026-05-04 19:39 51.32134 6.68848 3668 ft 243 kts
2026-05-04 19:40 51.33886 6.69042 4311 ft 256 kts
2026-05-04 19:40 51.35702 6.69235 4915 ft 272 kts
2026-05-04 19:40 51.37610 6.69437 5767 ft 278 kts
2026-05-04 19:40 51.39555 6.69615 6667 ft 282 kts
2026-05-04 19:41 51.41526 6.69675 7534 ft 285 kts
2026-05-04 19:41 51.43491 6.69673 8403 ft 288 kts 359°
2026-05-04 19:41 51.45504 6.69652 9272 ft 291 kts 360°
2026-05-04 19:41 51.47546 6.69633 9905 ft 295 kts 360°
2026-05-04 19:42 51.49616 6.69618 9973 ft 305 kts
2026-05-04 19:42 51.51829 6.69608 9975 ft 326 kts
2026-05-04 19:42 51.54124 6.69607 9967 ft 331 kts
2026-05-04 19:42 51.56426 6.69611 9969 ft 331 kts
2026-05-04 19:43 51.58732 6.70008 10267 ft 337 kts 13°
2026-05-04 19:43 51.60947 6.71188 11106 ft 336 kts 25°
2026-05-04 19:43 51.62982 6.73062 11854 ft 338 kts 37°
2026-05-04 19:43 51.64729 6.75616 12576 ft 341 kts 50°
2026-05-04 19:44 51.66178 6.78663 13300 ft 345 kts 54°
2026-05-04 19:44 51.67609 6.81792 13980 ft 349 kts 54°
2026-05-04 19:44 51.69059 6.84961 14593 ft 354 kts 54°
2026-05-04 19:44 51.70529 6.88170 15200 ft 358 kts 54°
2026-05-04 19:45 51.72023 6.91421 15804 ft 362 kts 54°
2026-05-04 19:45 51.73531 6.94704 16395 ft 367 kts 54°
2026-05-04 19:45 51.75034 6.97984 16985 ft 371 kts 54°
2026-05-04 19:45 51.76575 7.01357 17595 ft 375 kts 55°
2026-05-04 19:46 51.78133 7.04768 18202 ft 379 kts 55°
2026-05-04 19:46 51.79705 7.08217 18742 ft 384 kts 55°
2026-05-04 19:46 51.81294 7.11712 19299 ft 388 kts 55°
2026-05-04 19:46 51.82352 7.14043 19674 ft 390 kts 55°
2026-05-04 19:47 51.83970 7.17614 20221 ft 395 kts 55°
2026-05-04 19:47 51.85636 7.21162 20758 ft 399 kts 50°
2026-05-04 19:47 51.87550 7.24453 21273 ft 404 kts 47°
2026-05-04 19:47 51.90154 7.28835 21959 ft 409 kts 47°
2026-05-04 19:48 51.92145 7.32157 22488 ft 413 kts 46°
2026-05-04 19:48 51.93522 7.34374 22858 ft 416 kts 45°
2026-05-04 19:48 51.95614 7.37654 23394 ft 420 kts 44°
2026-05-04 19:48 51.97743 7.40929 23849 ft 424 kts 44°
2026-05-04 19:49 51.99899 7.44227 24269 ft 428 kts 44°
2026-05-04 19:49 52.02073 7.47566 24679 ft 432 kts 44°
2026-05-04 19:49 52.04257 7.50954 25083 ft 436 kts 44°
2026-05-04 19:49 52.06448 7.54386 25475 ft 440 kts 44°
2026-05-04 19:50 52.08630 7.57820 25861 ft 444 kts 44°
2026-05-04 19:50 52.10856 7.61329 26246 ft 448 kts 44°
2026-05-04 19:50 52.13127 7.64921 26638 ft 451 kts 44°
2026-05-04 19:50 52.15354 7.68449 27000 ft 455 kts 44°
2026-05-04 19:51 52.17628 7.72060 27381 ft 458 kts 44°
2026-05-04 19:51 52.19925 7.75705 27754 ft 461 kts 44°
2026-05-04 19:51 52.22232 7.79365 28126 ft 465 kts 44°
2026-05-04 19:51 52.24559 7.83057 28491 ft 468 kts 44°
2026-05-04 19:52 52.26907 7.86784 28845 ft 471 kts 44°
2026-05-04 19:52 52.29262 7.90526 29220 ft 474 kts 44°
2026-05-04 19:52 52.31631 7.94296 29576 ft 477 kts 44°
2026-05-04 19:52 52.34011 7.98098 29943 ft 480 kts 44°
2026-05-04 19:53 52.36407 8.01934 30258 ft 483 kts 44°
2026-05-04 19:53 52.38814 8.05791 30579 ft 486 kts 44°
2026-05-04 19:53 52.41229 8.09666 30881 ft 488 kts 44°
2026-05-04 19:53 52.43660 8.13576 31183 ft 491 kts 44°
2026-05-04 19:54 52.46097 8.17505 31573 ft 491 kts 44°
2026-05-04 19:54 52.48527 8.21435 32005 ft 490 kts 44°
2026-05-04 19:54 52.50955 8.25369 32425 ft 490 kts 44°
2026-05-04 19:54 52.53379 8.29297 32845 ft 490 kts 44°
2026-05-04 19:55 52.55862 8.33323 33265 ft 490 kts 44°
2026-05-04 19:55 52.58230 8.37170 33674 ft 490 kts 44°
2026-05-04 19:55 52.60657 8.41116 34082 ft 490 kts 44°
2026-05-04 19:55 52.63079 8.45060 34455 ft 489 kts 44°
2026-05-04 19:56 52.65489 8.48992 34839 ft 488 kts 44°
2026-05-04 19:56 52.67896 8.52924 34961 ft 486 kts 44°
2026-05-04 19:56 52.70283 8.56832 34992 ft 482 kts 44°
2026-05-04 19:57 52.75019 8.64617 34993 ft 480 kts 44°
2026-05-04 19:57 52.79714 8.72355 34995 ft 480 kts 44°
2026-05-04 19:58 52.84440 8.80149 34998 ft 480 kts 44°
2026-05-04 19:58 52.86799 8.84047 34851 ft 477 kts 44°
2026-05-04 19:58 52.89127 8.87908 34614 ft 473 kts 44°
2026-05-04 19:58 52.91446 8.91771 34364 ft 472 kts 44°
2026-05-04 19:59 52.93760 8.95634 34126 ft 473 kts 43°
2026-05-04 19:59 52.96076 8.99502 33873 ft 473 kts 43°
2026-05-04 19:59 52.98400 9.03384 33595 ft 474 kts 43°
2026-05-04 19:59 53.00724 9.07274 33318 ft 474 kts 43°
2026-05-04 20:00 53.03043 9.11156 33056 ft 474 kts 43°
2026-05-04 20:00 53.07684 9.18951 32997 ft 475 kts 43°
2026-05-04 20:01 53.12323 9.26766 32994 ft 474 kts 43°
2026-05-04 20:01 53.16951 9.34591 32992 ft 473 kts 43°
2026-05-04 20:02 53.21572 9.42421 32989 ft 472 kts 43°
2026-05-04 20:02 53.26157 9.50220 32993 ft 472 kts 43°
2026-05-04 20:03 53.30744 9.58053 33002 ft 472 kts 43°
2026-05-04 20:03 53.35302 9.65856 33004 ft 472 kts 43°
2026-05-04 20:04 53.39743 9.73500 33011 ft 471 kts 43°
2026-05-04 20:04 53.44309 9.81381 33013 ft 471 kts 43°
2026-05-04 20:05 53.48874 9.89263 32951 ft 469 kts 43°
2026-05-04 20:05 53.51125 9.93163 32683 ft 462 kts 43°
2026-05-04 20:05 53.53349 9.97024 32424 ft 458 kts 43°
2026-05-04 20:05 53.55556 10.00865 32162 ft 456 kts 43°
2026-05-04 20:06 53.57761 10.04706 31901 ft 455 kts 43°
2026-05-04 20:06 53.59950 10.08528 31641 ft 454 kts 43°
2026-05-04 20:06 53.62138 10.12358 31390 ft 452 kts 43°
2026-05-04 20:06 53.64315 10.16166 31130 ft 451 kts 43°
2026-05-04 20:07 53.66491 10.19971 30882 ft 451 kts 43°
2026-05-04 20:07 53.68663 10.23778 30634 ft 450 kts 44°
2026-05-04 20:07 53.70833 10.27597 30384 ft 449 kts 44°
2026-05-04 20:07 53.73014 10.31448 30131 ft 449 kts 44°
2026-05-04 20:08 53.75140 10.35209 29866 ft 448 kts 44°
2026-05-04 20:08 53.77287 10.39012 29581 ft 446 kts 44°
2026-05-04 20:08 53.79421 10.42794 29306 ft 444 kts 44°
2026-05-04 20:08 53.81553 10.46572 29025 ft 442 kts 44°
2026-05-04 20:09 53.83671 10.50325 28753 ft 440 kts 44°
2026-05-04 20:09 53.85762 10.54007 28482 ft 437 kts 41°
2026-05-04 20:09 53.88025 10.57507 28208 ft 434 kts 38°
2026-05-04 20:09 53.90254 10.60831 27949 ft 431 kts 38°
2026-05-04 20:10 53.92520 10.64148 27675 ft 428 kts 37°
2026-05-04 20:10 53.94777 10.67423 27408 ft 426 kts 37°
2026-05-04 20:10 53.97026 10.70687 27150 ft 424 kts 37°
2026-05-04 20:10 53.99256 10.73951 26891 ft 422 kts 37°
2026-05-04 20:11 54.01473 10.77213 26630 ft 420 kts 37°
2026-05-04 20:11 54.03678 10.80478 26375 ft 418 kts 37°
2026-05-04 20:11 54.05862 10.83725 26120 ft 416 kts 37°
2026-05-04 20:11 54.08038 10.86966 25868 ft 415 kts 37°
2026-05-04 20:12 54.10207 10.90196 25613 ft 413 kts 37°
2026-05-04 20:12 54.12337 10.93370 25380 ft 411 kts 37°
2026-05-04 20:12 54.14486 10.96573 25133 ft 409 kts 37°
2026-05-04 20:12 54.16626 10.99764 24897 ft 408 kts 37°
2026-05-04 20:13 54.18756 11.02950 24658 ft 406 kts 37°
2026-05-04 20:13 54.20878 11.06126 24423 ft 405 kts 37°
2026-05-04 20:13 54.22991 11.09291 24185 ft 403 kts 37°
2026-05-04 20:13 54.25093 11.12445 23958 ft 402 kts 37°
2026-05-04 20:14 54.27192 11.15602 23726 ft 401 kts 37°
2026-05-04 20:14 54.29282 11.18746 23482 ft 399 kts 37°
2026-05-04 20:14 54.31360 11.21879 23207 ft 398 kts 37°
2026-05-04 20:14 54.33428 11.25009 22936 ft 396 kts 37°
2026-05-04 20:15 54.35488 11.28127 22667 ft 394 kts 37°
2026-05-04 20:15 54.37537 11.31230 22393 ft 392 kts 37°
2026-05-04 20:15 54.39577 11.34318 22130 ft 390 kts 37°
2026-05-04 20:15 54.41601 11.37384 21868 ft 387 kts 37°
2026-05-04 20:16 54.43617 11.40445 21612 ft 385 kts 37°
2026-05-04 20:16 54.45614 11.43489 21348 ft 383 kts 37°
2026-05-04 20:16 54.47601 11.46527 21094 ft 381 kts 38°
2026-05-04 20:16 54.49577 11.49548 20841 ft 379 kts 38°
2026-05-04 20:17 54.51542 11.52552 20587 ft 377 kts 38°
2026-05-04 20:17 54.53496 11.55542 20334 ft 375 kts 38°
2026-05-04 20:17 54.55439 11.58519 20093 ft 373 kts 38°
2026-05-04 20:17 54.57372 11.61481 19842 ft 371 kts 38°
2026-05-04 20:18 54.59297 11.64437 19590 ft 369 kts 38°
2026-05-04 20:18 54.61210 11.67378 19359 ft 368 kts 38°
2026-05-04 20:18 54.63110 11.70306 19116 ft 365 kts 38°
2026-05-04 20:18 54.65003 11.73225 18877 ft 363 kts 39°
2026-05-04 20:19 54.66881 11.76123 18637 ft 362 kts 39°
2026-05-04 20:19 54.68753 11.79019 18405 ft 360 kts 39°
2026-05-04 20:19 54.70115 11.81131 18221 ft 359 kts 39°
2026-05-04 20:19 54.71965 11.84007 17953 ft 357 kts 39°
2026-05-04 20:20 54.73807 11.86871 17701 ft 355 kts 39°
2026-05-04 20:20 54.75638 11.89725 17421 ft 353 kts 39°
2026-05-04 20:20 54.77460 11.92565 17161 ft 352 kts 39°
2026-05-04 20:20 54.79278 11.95394 16899 ft 350 kts 39°
2026-05-04 20:21 54.81084 11.98204 16638 ft 349 kts 39°
2026-05-04 20:21 54.82926 12.00934 16378 ft 345 kts 31°
2026-05-04 20:21 54.86923 12.05434 15867 ft 341 kts 29°
2026-05-04 20:22 54.88915 12.07670 15616 ft 340 kts 29°
2026-05-04 20:22 54.90901 12.09898 15368 ft 339 kts 29°
2026-05-04 20:22 54.92877 12.12112 15122 ft 337 kts 29°
2026-05-04 20:22 54.94845 12.14319 14876 ft 336 kts 29°
2026-05-04 20:23 54.96806 12.16521 14635 ft 335 kts 29°
2026-05-04 20:23 54.98756 12.18716 14389 ft 334 kts 29°
2026-05-04 20:23 55.00703 12.20911 14150 ft 333 kts 29°
2026-05-04 20:23 55.02639 12.23101 13913 ft 332 kts 29°
2026-05-04 20:24 55.04570 12.25286 13667 ft 331 kts 29°
2026-05-04 20:24 55.06498 12.27465 13396 ft 329 kts 29°
2026-05-04 20:24 55.08417 12.29638 13133 ft 327 kts 29°
2026-05-04 20:24 55.10321 12.31794 12867 ft 326 kts 29°
2026-05-04 20:25 55.12218 12.33951 12604 ft 324 kts 29°
2026-05-04 20:25 55.14080 12.36074 12355 ft 323 kts 29°
2026-05-04 20:25 55.15956 12.38211 12104 ft 321 kts 29°
2026-05-04 20:25 55.17822 12.40336 11840 ft 319 kts 29°
2026-05-04 20:26 55.19680 12.42455 11587 ft 318 kts 29°
2026-05-04 20:26 55.21528 12.44568 11337 ft 316 kts 29°
2026-05-04 20:26 55.23369 12.46673 11087 ft 315 kts 29°
2026-05-04 20:26 55.25195 12.48761 10840 ft 313 kts 29°
2026-05-04 20:27 55.27016 12.50845 10597 ft 311 kts 29°
2026-05-04 20:27 55.28824 12.52919 10356 ft 310 kts 30°
2026-05-04 20:27 55.30622 12.54987 10111 ft 308 kts 30°
2026-05-04 20:27 55.32409 12.57039 9889 ft 305 kts 30°
2026-05-04 20:28 55.34168 12.59059 9759 ft 301 kts 30°
2026-05-04 20:28 55.35919 12.61072 9626 ft 300 kts 30°
2026-05-04 20:28 55.37665 12.63082 9495 ft 300 kts 30°
2026-05-04 20:28 55.39414 12.65098 9365 ft 299 kts 30°
2026-05-04 20:29 55.41149 12.67103 9238 ft 298 kts 30°
2026-05-04 20:29 55.42878 12.69105 9107 ft 298 kts 30°
2026-05-04 20:29 55.44607 12.71108 8975 ft 297 kts 30°
2026-05-04 20:29 55.46313 12.73086 8841 ft 296 kts 30°
2026-05-04 20:30 55.48025 12.75072 8545 ft 293 kts 30°
2026-05-04 20:30 55.49727 12.77045 8181 ft 292 kts 30°
2026-05-04 20:30 55.51425 12.79016 7814 ft 292 kts 30°
2026-05-04 20:30 55.53124 12.80995 7449 ft 292 kts 30°
2026-05-04 20:31 55.54821 12.82976 7082 ft 293 kts 30°
2026-05-04 20:31 55.56515 12.84955 6752 ft 291 kts 30°
2026-05-04 20:31 55.58200 12.86924 6442 ft 289 kts 30°
2026-05-04 20:31 55.59881 12.88890 6086 ft 288 kts 30°
2026-05-04 20:32 55.61547 12.90843 5664 ft 286 kts 30°
2026-05-04 20:32 55.63178 12.92758 5248 ft 276 kts 30°
2026-05-04 20:32 55.64749 12.94604 4917 ft 265 kts 30°
2026-05-04 20:32 55.66252 12.96375 4563 ft 255 kts 30°
2026-05-04 20:33 55.67708 12.98089 4267 ft 250 kts 30°
2026-05-04 20:33 55.69141 12.99777 4066 ft 244 kts 30°
2026-05-04 20:33 55.70554 13.01385 3908 ft 244 kts 23°
2026-05-04 20:33 55.72265 13.02080 3653 ft 256 kts 353°
2026-05-04 20:34 55.73926 13.01182 3404 ft 250 kts 324°
2026-05-04 20:34 55.75262 12.99299 3154 ft 249 kts 316°
2026-05-04 20:34 55.76434 12.97076 3002 ft 244 kts 298°
2026-05-04 20:34 55.76850 12.94295 2996 ft 228 kts 268°
2026-05-04 20:35 55.76578 12.91611 2998 ft 214 kts 256°
2026-05-04 20:35 55.75988 12.89292 3001 ft 200 kts 243°
2026-05-04 20:35 55.75322 12.87210 2997 ft 190 kts 241°
2026-05-04 20:35 55.74476 12.85425 3001 ft 189 kts 226°
2026-05-04 20:36 55.73504 12.83843 2890 ft 189 kts 225°
2026-05-04 20:36 55.72518 12.82292 2681 ft 188 kts 224°
2026-05-04 20:36 55.71541 12.80766 2478 ft 185 kts 225°
2026-05-04 20:36 55.70583 12.79271 2201 ft 182 kts 224°
2026-05-04 20:37 55.69674 12.77855 1953 ft 168 kts 225°
2026-05-04 20:37 55.68841 12.76560 1753 ft 150 kts 225°
2026-05-04 20:37 55.68085 12.75382 1533 ft 141 kts 225°
2026-05-04 20:37 55.67361 12.74253 1350 ft 137 kts 225°
2026-05-04 20:38 55.66649 12.73145 1164 ft 135 kts 225°
2026-05-04 20:38 55.65947 12.72052 974 ft 134 kts 225°
2026-05-04 20:38 55.65483 12.71332 843 ft 134 kts 225°
2026-05-04 20:38 55.64782 12.70238 662 ft 134 kts 223°
2026-05-04 20:39 55.64083 12.69150 479 ft 134 kts 223°
2026-05-04 20:39 55.63379 12.68072 315 ft 133 kts 224°
2026-05-04 20:39 55.62680 12.66977 110 ft 132 kts 223°
2026-05-04 20:39 55.62014 12.65921 27 ft 116 kts 219°
2026-05-04 20:40 55.61519 12.65170 23 ft 69 kts 220°
2026-05-04 20:40 55.61301 12.64775 25 ft 26 kts 238°
2026-05-04 20:40 55.61252 12.64576 24 ft 27 kts 252°
2026-05-04 20:40 55.61222 12.64428 24 ft 21 kts 250°
2026-05-04 20:41 55.61189 12.64247 26 ft 16 kts 259°
2026-05-04 20:41 55.61248 12.64106 24 ft 16 kts 352°
2026-05-04 20:41 55.61350 12.64194 24 ft 18 kts 34°
2026-05-04 20:41 55.61463 12.64323 24 ft 21 kts 31°
2026-05-04 20:42 55.61573 12.64446 25 ft 20 kts 32°
2026-05-04 20:42 55.61697 12.64590 24 ft 20 kts 33°
2026-05-04 20:42 55.61821 12.64732 25 ft 23 kts 32°
2026-05-04 20:42 55.61951 12.64882 23 ft 20 kts 33°
2026-05-04 20:43 55.62077 12.65024 24 ft 23 kts 33°
2026-05-04 20:43 55.62186 12.65152 25 ft 19 kts 33°
2026-05-04 20:43 55.62265 12.65113 24 ft 15 kts 302°
2026-05-04 20:43 55.62326 12.64944 25 ft 18 kts 302°
2026-05-04 20:44 55.62400 12.64743 24 ft 21 kts 303°
2026-05-04 20:44 55.62479 12.64531 24 ft 18 kts 303°
2026-05-04 20:44 55.62540 12.64367 25 ft 16 kts 303°
2026-05-04 20:44 55.62598 12.64258 24 ft 11 kts 358°
2026-05-04 20:45 55.62670 12.64316 24 ft 13 kts 21°
2026-05-04 20:45 55.62744 12.64374 24 ft 9 kts 22°
2026-05-04 20:45 55.62757 12.64451 24 ft 6 kts 98°
2026-05-04 20:45 55.62755 12.64473 24 ft 2 kts 100°
2026-05-04 20:46 55.62755 12.64476 24 ft 0 kts 101°